Погода в Рантепао

Индонезия     2°58′07″S   119°53′49″E
темп.,
°C
ветер,
м/с
пор.,
м/с
влажн.,
%
обл.,
%
осадки,
мм/ч
давл.,
гПа
погр.,
м
14 июня, пн
пн1423:00+19з119797 0.1 101416
02:00+18з119838 2.0 101322
05:00+18з119849 1.9 101333
08:00+20зюз019492 3.5 1015106
11:00+21вюв1197100 1.6 1014122
14:00+20ссв009885 3.6 1012118
17:00+22зюз0192100 0.4 1011204
20:00+19зсз0099100 1.1 101314
15 июня, вт
вт1523:00+18зсз119954 0.8 101413
02:00+17з119871 0.8 101220
05:00+18з1198100 0.0 101226
08:00+19сз0096100 0.1 101460
11:00+26всв226324 0.1 10121046
14:00+26всв2265100 0.9 10091121
17:00+22всв129136 1.6 1011311
20:00+19св0099100 3.9 101314
16 июня, ср
ср1623:00+18з1198100 0.1 101417
02:00+18з119788 0.1 101221
05:00+18з1196100 0.0 101221
08:00+21ююз018849 0.0 1014166
11:00+26в226315 0.1 10121204
14:00+26всв226459 0.8 10101224
17:00+22всв12907 1.7 1011268
20:00+19сз11985 2.4 101412
17 июня, чт
чт1723:00+18з11985 0.1 101513
02:00+18з11976 0.1 101418
05:00+17з11977 0.0 101422
08:00+21всв01885 0.0 1015218
11:00+25в226539 0.2 10131218
14:00+24в227386 1.6 10111076
17:00+22всв129613 1.9 1011196
20:00+19зсз11998 2.7 101412
18 июня, пт
пт1823:00+18зсз119816 0.0 101513
02:00+18з119851 0.0 101419
05:00+17з11987 0.0 101418
08:00+20св01925 0.0 1015203
11:00+26всв23618 0.0 10131224
14:00+26всв335822 0.2 10111461
17:00+23всв23785 0.3 1011419
20:00+19зсз11975 0.7 101411